Time,TemperatureF,DewpointF,PressureIn,WindDirection,WindDirectionDegrees,WindSpeedMPH,WindSpeedGustMPH,Humidity,HourlyPrecipIn,Conditions,Clouds,dailyrainin,SoftwareType,DateUTC
2013-04-13 09:00:00,80.5,72.6,29.92,South,180,4.0,8.0,77,0.00,,,0.00,VWS V14.01,2013-04-13 13:00:00,
2013-04-13 09:31:00,80.7,72.8,29.95,WSW,258,3.0,4.0,77,0.00,,,0.00,VWS V14.01,2013-04-13 13:31:00,
2013-04-13 09:32:00,80.7,72.8,29.95,WSW,258,4.0,4.0,77,0.17,,,0.00,VWS V14.01,2013-04-13 13:32:00,
2013-04-13 09:37:00,80.8,73.3,29.95,WSW,248,2.0,7.0,78,0.17,,,0.00,VWS V14.01,2013-04-13 13:37:00,
2013-04-13 09:43:00,81.0,73.9,29.96,West,262,4.0,8.0,79,0.17,,,0.00,VWS V14.01,2013-04-13 13:43:00,
2013-04-13 09:48:00,81.0,73.9,29.96,WSW,253,2.0,4.0,79,0.17,,,0.00,VWS V14.01,2013-04-13 13:48:00,
2013-04-13 09:53:00,80.8,73.3,29.96,WNW,290,4.0,6.0,78,0.17,,,0.00,VWS V14.01,2013-04-13 13:53:00,
2013-04-13 09:58:00,80.6,72.7,29.96,West,273,4.0,8.0,77,0.17,,,0.00,VWS V14.01,2013-04-13 13:58:00,
2013-04-13 10:03:00,80.6,72.3,29.96,West,259,6.0,7.0,76,0.17,,,0.00,VWS V14.01,2013-04-13 14:03:00,
2013-04-13 10:09:00,80.7,72.0,29.97,WNW,298,5.0,7.0,75,0.17,,,0.00,VWS V14.01,2013-04-13 14:09:00,
2013-04-13 10:14:00,80.7,72.4,29.97,West,270,4.0,7.0,76,0.17,,,0.00,VWS V14.01,2013-04-13 14:14:00,
2013-04-13 10:19:00,80.8,72.9,29.97,West,279,2.0,5.0,77,0.00,,,0.00,VWS V14.01,2013-04-13 14:19:00,
2013-04-13 10:24:00,81.0,73.1,29.97,WSW,244,3.0,5.0,77,0.00,,,0.00,VWS V14.01,2013-04-13 14:24:00,
2013-04-13 10:29:00,80.9,73.0,29.97,West,262,5.0,8.0,77,0.00,,,0.00,VWS V14.01,2013-04-13 14:29:00,
2013-04-13 10:34:00,80.8,73.3,29.97,WSW,244,4.0,7.0,78,0.00,,,0.00,VWS V14.01,2013-04-13 14:34:00,
2013-04-13 10:39:00,81.1,73.6,29.97,WSW,249,3.0,7.0,78,0.00,,,0.00,VWS V14.01,2013-04-13 14:39:00,
2013-04-13 10:44:00,81.2,73.7,29.97,West,270,4.0,8.0,78,0.00,,,0.00,VWS V14.01,2013-04-13 14:44:00,
2013-04-13 10:49:00,80.7,73.2,29.97,West,264,7.0,10.0,78,0.00,,,0.00,VWS V14.01,2013-04-13 14:49:00,
2013-04-13 10:54:00,80.4,73.3,29.98,WSW,242,9.0,11.0,79,0.00,,,0.00,VWS V14.01,2013-04-13 14:54:00,
2013-04-13 10:59:00,80.8,73.7,29.97,WSW,245,5.0,11.0,79,0.00,,,0.00,VWS V14.01,2013-04-13 14:59:00,
2013-04-13 11:04:00,81.2,73.7,29.97,SW,235,3.0,7.0,78,0.00,,,0.00,VWS V14.01,2013-04-13 15:04:00,
2013-04-13 11:09:00,81.8,73.5,29.97,WSW,255,5.0,7.0,76,0.00,,,0.00,VWS V14.01,2013-04-13 15:09:00,
2013-04-13 11:14:00,82.0,73.7,29.97,WSW,239,6.0,8.0,76,0.00,,,0.00,VWS V14.01,2013-04-13 15:14:00,
2013-04-13 11:19:00,81.4,73.1,29.97,WSW,255,3.0,10.0,76,0.00,,,0.00,VWS V14.01,2013-04-13 15:19:00,
2013-04-13 11:24:00,82.0,73.3,29.97,South,185,4.0,10.0,75,0.00,,,0.00,VWS V14.01,2013-04-13 15:24:00,
2013-04-13 11:29:00,82.1,73.4,29.97,SW,215,4.0,10.0,75,0.00,,,0.00,VWS V14.01,2013-04-13 15:29:00,
2013-04-13 11:34:00,82.3,73.6,29.98,SSW,198,0.0,3.0,75,0.00,,,0.00,VWS V14.01,2013-04-13 15:34:00,
2013-04-13 11:39:00,82.6,73.5,29.98,SSW,198,1.0,3.0,74,0.00,,,0.00,VWS V14.01,2013-04-13 15:39:00,
2013-04-13 11:44:00,82.5,73.0,29.98,South,171,2.0,3.0,73,0.00,,,0.00,VWS V14.01,2013-04-13 15:44:00,
2013-04-13 11:49:00,82.1,72.6,29.98,SE,128,0.0,2.0,73,0.00,,,0.00,VWS V14.01,2013-04-13 15:49:00,
2013-04-13 11:54:00,81.9,72.8,29.98,ESE,116,0.0,2.0,74,0.00,,,0.00,VWS V14.01,2013-04-13 15:54:00,
2013-04-13 12:00:00,81.6,72.5,29.98,SE,132,0.0,2.0,74,0.00,,,0.00,VWS V14.01,2013-04-13 16:00:00,
2013-04-13 12:05:00,81.6,72.5,29.98,ESE,104,0.0,2.0,74,0.00,,,0.00,VWS V14.01,2013-04-13 16:05:00,
2013-04-13 12:10:00,81.4,71.9,29.98,ESE,111,0.0,4.0,73,0.00,,,0.00,VWS V14.01,2013-04-13 16:10:00,
2013-04-13 12:15:00,81.0,72.3,29.98,ESE,107,5.0,7.0,75,0.00,,,0.00,VWS V14.01,2013-04-13 16:15:00,
2013-04-13 12:20:00,80.2,72.3,29.98,SSE,165,3.0,5.0,77,0.00,,,0.00,VWS V14.01,2013-04-13 16:20:00,
2013-04-13 12:25:00,79.6,72.5,29.98,SSE,157,0.0,5.0,79,0.00,,,0.00,VWS V14.01,2013-04-13 16:25:00,
2013-04-13 12:30:00,79.2,72.5,29.98,SE,144,3.0,8.0,80,0.00,,,0.00,VWS V14.01,2013-04-13 16:30:00,
2013-04-13 12:35:00,79.2,72.5,29.97,SSE,161,0.0,5.0,80,0.00,,,0.00,VWS V14.01,2013-04-13 16:35:00,
2013-04-13 12:40:00,79.3,72.6,29.98,SSE,148,2.0,5.0,80,0.00,,,0.00,VWS V14.01,2013-04-13 16:40:00,
2013-04-13 12:45:00,79.0,72.7,29.98,ESE,112,0.0,7.0,81,0.00,,,0.00,VWS V14.01,2013-04-13 16:45:00,
2013-04-13 12:50:00,78.8,73.2,29.98,South,174,4.0,7.0,83,0.00,,,0.00,VWS V14.01,2013-04-13 16:50:00,
2013-04-13 12:55:00,78.3,73.4,29.98,SE,142,5.0,7.0,85,0.00,,,0.00,VWS V14.01,2013-04-13 16:55:00,
2013-04-13 13:01:00,78.2,73.7,29.98,ESE,105,3.0,9.0,86,0.00,,,0.00,VWS V14.01,2013-04-13 17:01:00,
2013-04-13 13:06:00,78.2,72.6,29.97,ESE,120,4.0,9.0,83,0.00,,,0.00,VWS V14.01,2013-04-13 17:06:00,
2013-04-13 13:11:00,78.2,72.6,29.97,SE,142,5.0,9.0,83,0.00,,,0.00,VWS V14.01,2013-04-13 17:11:00,
2013-04-13 13:16:00,78.3,72.7,29.97,SE,142,4.0,6.0,83,0.00,,,0.00,VWS V14.01,2013-04-13 17:16:00,
2013-04-13 13:21:00,78.3,72.7,29.97,SSE,158,2.0,6.0,83,0.00,,,0.00,VWS V14.01,2013-04-13 17:21:00,
2013-04-13 13:26:00,78.9,72.2,29.97,South,185,2.0,6.0,80,0.00,,,0.00,VWS V14.01,2013-04-13 17:26:00,
2013-04-13 13:31:00,79.9,72.4,29.96,South,183,2.0,2.0,78,0.00,,,0.00,VWS V14.01,2013-04-13 17:31:00,
2013-04-13 13:36:00,81.9,72.8,29.95,South,182,1.0,3.0,74,0.00,,,0.00,VWS V14.01,2013-04-13 17:36:00,
2013-04-13 13:42:00,83.7,72.0,29.95,South,186,3.0,5.0,68,0.00,,,0.00,VWS V14.01,2013-04-13 17:42:00,
2013-04-13 13:47:00,83.6,72.8,29.95,ESE,110,1.0,5.0,70,0.00,,,0.00,VWS V14.01,2013-04-13 17:47:00,
2013-04-13 13:52:00,85.2,72.1,29.95,SE,136,5.0,7.0,65,0.00,,,0.00,VWS V14.01,2013-04-13 17:52:00,
2013-04-13 13:57:00,84.4,71.8,29.95,SE,137,3.0,7.0,66,0.00,,,0.00,VWS V14.01,2013-04-13 17:57:00,
2013-04-13 14:02:00,83.6,71.9,29.95,SSW,194,3.0,9.0,68,0.00,,,0.00,VWS V14.01,2013-04-13 18:02:00,
2013-04-13 14:07:00,82.4,71.6,29.95,South,182,2.0,9.0,70,0.00,,,0.00,VWS V14.01,2013-04-13 18:07:00,
2013-04-13 14:12:00,83.5,72.7,29.95,SE,142,3.0,10.0,70,0.00,,,0.00,VWS V14.01,2013-04-13 18:12:00,
2013-04-13 14:17:00,84.3,72.6,29.94,SSE,149,4.0,10.0,68,0.00,,,0.00,VWS V14.01,2013-04-13 18:17:00,
2013-04-13 14:22:00,83.8,71.2,29.94,South,188,7.0,11.0,66,0.00,,,0.00,VWS V14.01,2013-04-13 18:22:00,
2013-04-13 14:27:00,83.7,71.1,29.94,SSE,151,4.0,11.0,66,0.00,,,0.00,VWS V14.01,2013-04-13 18:27:00,
2013-04-13 14:32:00,84.1,72.0,29.94,South,171,7.0,9.0,67,0.00,,,0.00,VWS V14.01,2013-04-13 18:32:00,
2013-04-13 14:37:00,84.5,72.8,29.94,ESE,108,4.0,12.0,68,0.00,,,0.00,VWS V14.01,2013-04-13 18:37:00,
2013-04-13 14:42:00,83.7,71.6,29.94,South,190,11.0,15.0,67,0.00,,,0.00,VWS V14.01,2013-04-13 18:42:00,
2013-04-13 14:47:00,81.8,71.5,29.94,SE,146,5.0,14.0,71,0.00,,,0.00,VWS V14.01,2013-04-13 18:47:00,
2013-04-13 14:52:00,81.4,71.5,29.93,SSE,153,5.0,14.0,72,0.00,,,0.00,VWS V14.01,2013-04-13 18:52:00,
2013-04-13 14:57:00,81.2,71.3,29.93,South,173,3.0,15.0,72,0.00,,,0.00,VWS V14.01,2013-04-13 18:57:00,
2013-04-13 15:02:00,81.8,71.9,29.93,ESE,118,7.0,7.0,72,0.00,,,0.00,VWS V14.01,2013-04-13 19:02:00,
2013-04-13 15:07:00,82.6,72.7,29.92,SE,125,9.0,12.0,72,0.00,,,0.00,VWS V14.01,2013-04-13 19:07:00,
2013-04-13 15:12:00,83.9,73.5,29.92,SSE,163,4.0,12.0,71,0.00,,,0.00,VWS V14.01,2013-04-13 19:12:00,
2013-04-13 15:17:00,84.5,73.2,29.92,South,186,10.0,10.0,69,0.00,,,0.00,VWS V14.01,2013-04-13 19:17:00,
2013-04-13 15:22:00,85.0,72.8,29.93,SSW,193,7.0,11.0,67,0.00,,,0.00,VWS V14.01,2013-04-13 19:22:00,
2013-04-13 15:27:00,83.4,72.2,29.92,SSE,160,5.0,11.0,69,0.00,,,0.00,VWS V14.01,2013-04-13 19:27:00,
2013-04-13 15:32:00,83.0,72.2,29.92,SSE,168,7.0,11.0,70,0.00,,,0.00,VWS V14.01,2013-04-13 19:32:00,
2013-04-13 15:37:00,83.0,71.8,29.92,SSW,195,6.0,11.0,69,0.00,,,0.00,VWS V14.01,2013-04-13 19:37:00,
2013-04-13 15:42:00,83.1,72.3,29.91,South,180,5.0,11.0,70,0.00,,,0.00,VWS V14.01,2013-04-13 19:42:00,
2013-04-13 15:47:00,83.4,72.2,29.91,South,171,7.0,7.0,69,0.00,,,0.00,VWS V14.01,2013-04-13 19:47:00,
2013-04-13 15:52:00,83.4,71.3,29.92,SSW,195,3.0,7.0,67,0.00,,,0.00,VWS V14.01,2013-04-13 19:52:00,
2013-04-13 15:57:00,83.3,71.2,29.91,South,182,1.0,7.0,67,0.00,,,0.00,VWS V14.01,2013-04-13 19:57:00,
2013-04-13 16:02:00,83.5,71.4,29.92,SSE,161,0.0,1.0,67,0.00,,,0.00,VWS V14.01,2013-04-13 20:02:00,
2013-04-13 16:07:00,83.7,71.6,29.92,SSE,161,0.0,1.0,67,0.00,,,0.00,VWS V14.01,2013-04-13 20:07:00,
2013-04-13 16:12:00,83.9,71.3,29.91,ESE,115,0.0,4.0,66,0.00,,,0.00,VWS V14.01,2013-04-13 20:12:00,
2013-04-13 16:17:00,83.9,71.8,29.91,ESE,119,1.0,3.0,67,0.00,,,0.00,VWS V14.01,2013-04-13 20:17:00,
2013-04-13 16:22:00,83.7,71.6,29.91,SE,130,0.0,3.0,67,0.00,,,0.00,VWS V14.01,2013-04-13 20:22:00,
2013-04-13 16:27:00,83.6,71.9,29.92,ESE,123,0.0,3.0,68,0.00,,,0.00,VWS V14.01,2013-04-13 20:27:00,
2013-04-13 16:32:00,83.5,72.3,29.91,ESE,121,1.0,1.0,69,0.00,,,0.00,VWS V14.01,2013-04-13 20:32:00,
2013-04-13 16:37:00,83.4,73.4,29.91,East,87,1.0,2.0,72,0.00,,,0.00,VWS V14.01,2013-04-13 20:37:00,
2013-04-13 16:42:00,82.3,74.0,29.92,NNW,337,2.0,3.0,76,0.01,,,0.01,VWS V14.01,2013-04-13 20:42:00,
2013-04-13 16:47:00,80.7,74.3,29.92,NW,315,3.0,5.0,81,0.02,,,0.02,VWS V14.01,2013-04-13 20:47:00,
2013-04-13 16:52:00,79.4,74.5,29.91,NW,319,4.0,7.0,85,0.03,,,0.03,VWS V14.01,2013-04-13 20:52:00,
2013-04-13 16:57:00,78.2,74.0,29.91,NNW,336,3.0,9.0,87,0.04,,,0.04,VWS V14.01,2013-04-13 20:57:00,
2013-04-13 17:02:00,77.3,73.8,29.91,NNW,339,8.0,11.0,89,0.06,,,0.06,VWS V14.01,2013-04-13 21:02:00,
2013-04-13 17:07:00,77.5,74.7,29.90,NW,319,4.0,11.0,91,0.07,,,0.07,VWS V14.01,2013-04-13 21:07:00,
2013-04-13 17:12:00,78.0,75.5,29.90,NNW,341,4.0,11.0,92,0.07,,,0.07,VWS V14.01,2013-04-13 21:12:00,
2013-04-13 17:17:00,78.2,75.0,29.90,NW,325,4.0,5.0,90,0.07,,,0.07,VWS V14.01,2013-04-13 21:17:00,
2013-04-13 17:22:00,78.9,75.1,29.90,NNW,331,1.0,5.0,88,0.07,,,0.07,VWS V14.01,2013-04-13 21:22:00,
2013-04-13 17:27:00,79.3,74.8,29.91,NNW,331,2.0,5.0,86,0.07,,,0.07,VWS V14.01,2013-04-13 21:27:00,
2013-04-13 17:32:00,79.2,74.3,29.91,NNW,345,3.0,4.0,85,0.07,,,0.07,VWS V14.01,2013-04-13 21:32:00,
2013-04-13 17:37:00,79.3,75.1,29.91,North,355,6.0,6.0,87,0.07,,,0.07,VWS V14.01,2013-04-13 21:37:00,
2013-04-13 17:42:00,79.1,74.2,29.91,NNW,329,3.0,7.0,85,0.07,,,0.07,VWS V14.01,2013-04-13 21:42:00,
2013-04-13 17:47:00,78.7,74.2,29.91,North,360,5.0,7.0,86,0.06,,,0.07,VWS V14.01,2013-04-13 21:47:00,
2013-04-13 17:52:00,78.3,73.8,29.91,NW,317,4.0,8.0,86,0.06,,,0.07,VWS V14.01,2013-04-13 21:52:00,
2013-04-13 17:57:00,78.1,73.6,29.91,NNW,329,3.0,8.0,86,0.06,,,0.07,VWS V14.01,2013-04-13 21:57:00,
2013-04-13 18:02:00,78.1,73.9,29.91,NW,315,5.0,5.0,87,0.01,,,0.07,VWS V14.01,2013-04-13 22:02:00,
2013-04-13 18:07:00,77.8,73.3,29.91,NNW,333,5.0,8.0,86,0.01,,,0.07,VWS V14.01,2013-04-13 22:07:00,
2013-04-13 18:12:00,77.5,73.0,29.91,NW,326,6.0,8.0,86,0.01,,,0.07,VWS V14.01,2013-04-13 22:12:00,
2013-04-13 18:17:00,77.3,72.8,29.90,WNW,297,3.0,4.0,86,0.00,,,0.07,VWS V14.01,2013-04-13 22:17:00,
2013-04-13 18:22:00,77.3,73.1,29.90,WSW,256,2.0,5.0,87,0.00,,,0.07,VWS V14.01,2013-04-13 22:22:00,
2013-04-13 18:27:00,77.3,72.8,29.90,WSW,256,2.0,5.0,86,0.00,,,0.07,VWS V14.01,2013-04-13 22:27:00,
2013-04-13 18:32:00,77.6,72.7,29.91,WSW,256,1.0,2.0,85,0.00,,,0.07,VWS V14.01,2013-04-13 22:32:00,
2013-04-13 18:37:00,78.0,72.8,29.91,WSW,256,2.0,3.0,84,0.00,,,0.07,VWS V14.01,2013-04-13 22:37:00,
2013-04-13 18:42:00,78.0,72.4,29.91,WSW,256,0.0,3.0,83,0.00,,,0.07,VWS V14.01,2013-04-13 22:42:00,
2013-04-13 18:47:00,78.2,72.6,29.91,WSW,256,0.0,1.0,83,0.00,,,0.07,VWS V14.01,2013-04-13 22:47:00,
2013-04-13 18:52:00,78.4,72.4,29.91,West,275,1.0,3.0,82,0.00,,,0.07,VWS V14.01,2013-04-13 22:52:00,
2013-04-13 18:57:00,78.5,72.6,29.91,NW,325,3.0,4.0,82,0.00,,,0.07,VWS V14.01,2013-04-13 22:57:00,
2013-04-13 19:02:00,78.4,72.4,29.91,NNW,329,6.0,9.0,82,0.00,,,0.07,VWS V14.01,2013-04-13 23:02:00,
2013-04-13 19:07:00,77.9,72.7,29.91,NNE,23,3.0,9.0,84,0.00,,,0.07,VWS V14.01,2013-04-13 23:07:00,
2013-04-13 19:12:00,77.7,72.8,29.91,NNE,24,3.0,9.0,85,0.00,,,0.07,VWS V14.01,2013-04-13 23:12:00,
2013-04-13 19:17:00,77.3,72.8,29.92,NE,50,2.0,8.0,86,0.00,,,0.07,VWS V14.01,2013-04-13 23:17:00,
2013-04-13 19:22:00,76.9,72.4,29.92,NNE,13,5.0,8.0,86,0.00,,,0.07,VWS V14.01,2013-04-13 23:22:00,
2013-04-13 19:27:00,76.7,72.2,29.92,NNE,14,4.0,8.0,86,0.00,,,0.07,VWS V14.01,2013-04-13 23:27:00,
2013-04-13 19:32:00,76.6,72.1,29.92,NNE,33,0.0,1.0,86,0.00,,,0.07,VWS V14.01,2013-04-13 23:32:00,
2013-04-13 19:37:00,76.7,71.9,29.92,NE,41,1.0,3.0,85,0.00,,,0.07,VWS V14.01,2013-04-13 23:37:00,
2013-04-13 19:42:00,76.5,71.3,29.92,NE,48,1.0,3.0,84,0.00,,,0.07,VWS V14.01,2013-04-13 23:42:00,
2013-04-13 19:47:00,76.4,70.9,29.91,NE,48,1.0,1.0,83,0.00,,,0.07,VWS V14.01,2013-04-13 23:47:00,
2013-04-13 19:52:00,76.4,70.5,29.91,NE,48,0.0,1.0,82,0.00,,,0.07,VWS V14.01,2013-04-13 23:52:00,
2013-04-13 19:57:00,76.4,70.5,29.91,NE,48,0.0,1.0,82,0.00,,,0.07,VWS V14.01,2013-04-13 23:57:00,
2013-04-13 20:02:00,76.3,70.4,29.91,NE,48,0.0,0.0,82,0.00,,,0.07,VWS V14.01,2013-04-14 00:02:00,
2013-04-13 20:07:00,76.2,70.3,29.92,NE,48,1.0,1.0,82,0.00,,,0.07,VWS V14.01,2013-04-14 00:07:00,
2013-04-13 20:12:00,76.4,70.5,29.91,NE,48,1.0,2.0,82,0.00,,,0.07,VWS V14.01,2013-04-14 00:12:00,
2013-04-13 20:18:00,76.4,70.9,29.91,NE,48,0.0,0.0,83,0.00,,,0.07,VWS V14.01,2013-04-14 00:18:00,
2013-04-13 20:23:00,76.2,70.7,29.92,NE,48,0.0,0.0,83,0.00,,,0.07,VWS V14.01,2013-04-14 00:23:00,
2013-04-13 20:28:00,76.1,70.6,29.92,NE,48,0.0,1.0,83,0.00,,,0.07,VWS V14.01,2013-04-14 00:28:00,
2013-04-13 20:32:00,76.0,70.8,29.93,NE,48,0.0,0.0,84,0.00,,,0.07,VWS V14.01,2013-04-14 00:32:00,
2013-04-13 20:38:00,75.8,70.3,29.93,ENE,61,0.0,3.0,83,0.00,,,0.07,VWS V14.01,2013-04-14 00:38:00,
2013-04-13 20:43:00,75.7,70.2,29.93,NE,44,0.0,3.0,83,0.00,,,0.07,VWS V14.01,2013-04-14 00:43:00,
2013-04-13 20:47:00,75.6,70.1,29.93,NE,44,0.0,0.0,83,0.00,,,0.07,VWS V14.01,2013-04-14 00:47:00,
2013-04-13 20:52:00,75.6,70.4,29.93,NE,44,0.0,1.0,84,0.00,,,0.07,VWS V14.01,2013-04-14 00:52:00,
2013-04-13 20:57:00,75.5,70.0,29.93,NE,44,0.0,1.0,83,0.00,,,0.07,VWS V14.01,2013-04-14 00:57:00,
2013-04-13 21:02:00,75.5,69.6,29.93,NE,44,0.0,1.0,82,0.00,,,0.07,VWS V14.01,2013-04-14 01:02:00,
2013-04-13 21:07:00,75.6,70.1,29.94,NE,44,2.0,2.0,83,0.00,,,0.07,VWS V14.01,2013-04-14 01:07:00,